Wetterdaten: Freitag, 20.11.2015
Datum Zeit Auen-Temp. Temp gefhlt Luftfeuchte Luftdruck Regen Wind Richtung Richtung Taupunkt Windben
20.11.2015 00:00 14,3 C 14,1 C 52 % 1014,8 hPa 0,0 mm 17,6 km/h (3 Bft) W 270 4,6 C 26,7 km/h (4 Bft)
20.11.2015 00:05 14,3 C 14,1 C 53 % 1014,8 hPa 0,0 mm 16,1 km/h (3 Bft) S-SW 202 4,9 C 38,8 km/h (5 Bft)
20.11.2015 00:10 14,5 C 14,2 C 53 % 1014,8 hPa 0,0 mm 16,6 km/h (3 Bft) W 270 5,0 C 18,4 km/h (3 Bft)
20.11.2015 00:15 14,4 C 14,2 C 53 % 1014,8 hPa 0,0 mm 18,4 km/h (3 Bft) W-SW 247 4,9 C 17,3 km/h (3 Bft)
20.11.2015 00:20 14,4 C 14,1 C 53 % 1014,8 hPa 0,0 mm 18,1 km/h (3 Bft) W 270 4,9 C 23,8 km/h (4 Bft)
20.11.2015 00:25 14,4 C 14,2 C 54 % 1014,8 hPa 0,0 mm 19,7 km/h (3 Bft) W-SW 247 5,2 C 33,4 km/h (5 Bft)
20.11.2015 00:30 14,2 C 13,9 C 54 % 1014,6 hPa 0,0 mm 19,9 km/h (4 Bft) S 180 5,0 C 19,7 km/h (3 Bft)
20.11.2015 00:35 14,1 C 13,9 C 54 % 1014,6 hPa 0,0 mm 18,1 km/h (3 Bft) W 270 4,9 C 20,5 km/h (4 Bft)
20.11.2015 00:40 14,1 C 13,9 C 55 % 1014,6 hPa 0,0 mm 18,1 km/h (3 Bft) W 270 5,2 C 31,6 km/h (5 Bft)
20.11.2015 00:45 14,1 C 13,8 C 55 % 1014,6 hPa 0,0 mm 18,4 km/h (3 Bft) S 180 5,2 C 15,8 km/h (3 Bft)
20.11.2015 00:50 14,0 C 13,7 C 55 % 1014,7 hPa 0,0 mm 18,6 km/h (3 Bft) SW 225 5,1 C 21,5 km/h (4 Bft)
20.11.2015 00:55 13,9 C 13,7 C 56 % 1014,7 hPa 0,0 mm 16,6 km/h (3 Bft) W 270 5,3 C 14,0 km/h (3 Bft)
20.11.2015 01:00 13,7 C 13,5 C 57 % 1014,7 hPa 0,0 mm 16,1 km/h (3 Bft) W 270 5,3 C 14,0 km/h (3 Bft)
20.11.2015 01:05 13,7 C 13,4 C 57 % 1014,7 hPa 0,0 mm 15,3 km/h (3 Bft) W 270 5,3 C 12,4 km/h (3 Bft)
20.11.2015 01:10 14,0 C 13,6 C 56 % 1014,1 hPa 0,0 mm 17,3 km/h (3 Bft) W-SW 247 5,4 C 26,7 km/h (4 Bft)
20.11.2015 01:15 14,2 C 13,9 C 56 % 1014,1 hPa 0,0 mm 18,6 km/h (3 Bft) W-SW 247 5,6 C 25,9 km/h (4 Bft)
20.11.2015 01:20 14,4 C 14,1 C 55 % 1014,1 hPa 0,0 mm 18,9 km/h (3 Bft) W-SW 247 5,5 C 35,0 km/h (5 Bft)
20.11.2015 01:25 14,5 C 14,1 C 55 % 1014,1 hPa 0,0 mm 20,5 km/h (4 Bft) SW 225 5,6 C 22,5 km/h (4 Bft)
20.11.2015 01:30 14,6 C 14,3 C 55 % 1014,1 hPa 0,0 mm 23,0 km/h (4 Bft) W 270 5,7 C 33,7 km/h (5 Bft)
20.11.2015 01:35 14,5 C 14,3 C 55 % 1014,1 hPa 0,0 mm 21,0 km/h (4 Bft) SW 225 5,6 C 36,5 km/h (5 Bft)
20.11.2015 01:40 14,6 C 14,4 C 55 % 1014,1 hPa 0,0 mm 22,5 km/h (4 Bft) W 270 5,7 C 57,5 km/h (7 Bft)
20.11.2015 01:45 14,3 C 14,1 C 55 % 1014,1 hPa 0,0 mm 21,8 km/h (4 Bft) W-NW 292 5,4 C 23,8 km/h (4 Bft)
20.11.2015 01:50 14,1 C 13,9 C 55 % 1013,7 hPa 0,0 mm 18,6 km/h (3 Bft) SW 225 5,2 C 12,9 km/h (3 Bft)
20.11.2015 01:55 14,1 C 13,9 C 56 % 1013,7 hPa 0,0 mm 19,2 km/h (3 Bft) NW 315 5,5 C 14,8 km/h (3 Bft)
20.11.2015 02:00 13,9 C 13,7 C 57 % 1013,7 hPa 0,0 mm 17,6 km/h (3 Bft) W-SW 247 5,5 C 15,3 km/h (3 Bft)
20.11.2015 02:05 13,9 C 13,6 C 57 % 1013,7 hPa 0,0 mm 18,4 km/h (3 Bft) S-SW 202 5,5 C 51,0 km/h (7 Bft)
20.11.2015 02:10 13,8 C 13,5 C 58 % 1014,1 hPa 0,0 mm 24,3 km/h (4 Bft) W-SW 247 5,7 C 20,5 km/h (4 Bft)
20.11.2015 02:15 13,8 C 13,5 C 58 % 1014,1 hPa 0,0 mm 24,9 km/h (4 Bft) W-NW 292 5,7 C 25,4 km/h (4 Bft)
20.11.2015 02:20 13,6 C 13,3 C 58 % 1014,1 hPa 0,0 mm 19,4 km/h (3 Bft) W-SW 247 5,5 C 31,3 km/h (5 Bft)
20.11.2015 02:25 13,7 C 13,4 C 58 % 1014,1 hPa 0,0 mm 21,0 km/h (4 Bft) W-SW 247 5,6 C 43,0 km/h (6 Bft)
20.11.2015 02:30 13,7 C 13,4 C 58 % 1014,3 hPa 0,0 mm 21,0 km/h (4 Bft) NW 315 5,6 C 9,3 km/h (2 Bft)
20.11.2015 02:35 13,7 C 13,3 C 58 % 1014,3 hPa 0,0 mm 19,4 km/h (3 Bft) W-SW 247 5,6 C 37,8 km/h (5 Bft)
20.11.2015 02:40 13,8 C 13,5 C 58 % 1014,3 hPa 0,0 mm 17,1 km/h (3 Bft) SW 225 5,7 C 37,3 km/h (5 Bft)
20.11.2015 02:45 13,4 C 13,1 C 59 % 1014,3 hPa 0,0 mm 17,3 km/h (3 Bft) W-SW 247 5,6 C 22,5 km/h (4 Bft)
20.11.2015 02:50 13,1 C 12,8 C 62 % 1014,0 hPa 0,0 mm 18,6 km/h (3 Bft) W 270 6,0 C 37,8 km/h (5 Bft)
20.11.2015 02:55 12,9 C 12,5 C 64 % 1014,0 hPa 0,0 mm 19,2 km/h (3 Bft) SW 225 6,3 C 17,6 km/h (3 Bft)
20.11.2015 03:00 12,8 C 12,4 C 64 % 1014,0 hPa 0,0 mm 18,9 km/h (3 Bft) W 270 6,2 C 19,7 km/h (3 Bft)
20.11.2015 03:05 12,7 C 12,4 C 65 % 1014,0 hPa 0,0 mm 15,0 km/h (3 Bft) S-SO 157 6,3 C 20,7 km/h (4 Bft)
20.11.2015 03:10 12,6 C 12,4 C 65 % 1014,0 hPa 0,0 mm 13,2 km/h (3 Bft) NW 315 6,2 C 12,9 km/h (3 Bft)
20.11.2015 03:15 12,7 C 12,5 C 65 % 1014,0 hPa 0,0 mm 14,2 km/h (3 Bft) W 270 6,3 C 29,8 km/h (5 Bft)
20.11.2015 03:20 12,6 C 12,3 C 65 % 1014,0 hPa 0,0 mm 14,5 km/h (3 Bft) W 270 6,2 C 17,9 km/h (3 Bft)
20.11.2015 03:25 12,8 C 12,6 C 64 % 1014,0 hPa 0,0 mm 14,2 km/h (3 Bft) W 270 6,2 C 15,0 km/h (3 Bft)
20.11.2015 03:30 12,8 C 12,6 C 63 % 1013,5 hPa 0,0 mm 14,5 km/h (3 Bft) S-SW 202 5,9 C 29,3 km/h (5 Bft)
20.11.2015 03:35 13,0 C 12,8 C 62 % 1013,5 hPa 0,0 mm 15,0 km/h (3 Bft) W-NW 292 5,9 C 26,2 km/h (4 Bft)
20.11.2015 03:40 12,9 C 12,7 C 63 % 1013,5 hPa 0,0 mm 15,3 km/h (3 Bft) W-SW 247 6,0 C 15,3 km/h (3 Bft)
20.11.2015 03:45 13,0 C 12,8 C 62 % 1013,5 hPa 0,0 mm 16,6 km/h (3 Bft) W 270 5,9 C 24,3 km/h (4 Bft)
20.11.2015 03:50 12,7 C 12,5 C 66 % 1013,7 hPa 0,0 mm 20,2 km/h (4 Bft) W-SW 247 6,5 C 29,8 km/h (5 Bft)
20.11.2015 03:55 12,4 C 12,1 C 68 % 1013,7 hPa 0,0 mm 19,9 km/h (4 Bft) N-NO 22 6,7 C 25,4 km/h (4 Bft)
20.11.2015 04:00 12,0 C 11,6 C 71 % 1013,7 hPa 0,0 mm 17,9 km/h (3 Bft) W 270 6,9 C 15,5 km/h (3 Bft)
20.11.2015 04:05 12,0 C 11,4 C 72 % 1013,7 hPa 0,0 mm 16,8 km/h (3 Bft) W-SW 247 7,1 C 13,7 km/h (3 Bft)
20.11.2015 04:10 12,1 C 11,7 C 72 % 1013,8 hPa 0,0 mm 16,3 km/h (3 Bft) W-SW 247 7,2 C 17,6 km/h (3 Bft)
20.11.2015 04:15 12,1 C 11,8 C 71 % 1013,8 hPa 0,0 mm 16,1 km/h (3 Bft) W-SW 247 7,0 C 21,0 km/h (4 Bft)
20.11.2015 04:20 12,2 C 11,9 C 71 % 1013,8 hPa 0,0 mm 15,0 km/h (3 Bft) W 270 7,1 C 23,8 km/h (4 Bft)
20.11.2015 04:25 12,4 C 12,1 C 69 % 1013,8 hPa 0,0 mm 16,8 km/h (3 Bft) W 270 6,9 C 25,4 km/h (4 Bft)
20.11.2015 04:30 12,6 C 12,3 C 69 % 1013,6 hPa 0,0 mm 20,2 km/h (4 Bft) S-SW 202 7,1 C 59,0 km/h (7 Bft)
20.11.2015 04:35 12,6 C 12,3 C 68 % 1013,6 hPa 0,0 mm 19,7 km/h (3 Bft) W 270 6,9 C 38,6 km/h (5 Bft)
20.11.2015 04:40 12,8 C 12,5 C 67 % 1013,6 hPa 0,0 mm 22,0 km/h (4 Bft) W 270 6,8 C 34,4 km/h (5 Bft)
20.11.2015 04:42 12,8 C 11,2 C 67 % 1013,6 hPa 0,0 mm 22,0 km/h (4 Bft) W 270 6,8 C 34,4 km/h (5 Bft)
20.11.2015 04:45 12,8 C 12,3 C 67 % 1013,6 hPa 0,0 mm 22,3 km/h (4 Bft) SW 225 6,8 C 21,2 km/h (4 Bft)
20.11.2015 04:50 12,9 C 12,6 C 67 % 1013,2 hPa 0,0 mm 21,8 km/h (4 Bft) SW 225 6,9 C 10,4 km/h (2 Bft)
20.11.2015 04:55 12,9 C 12,6 C 67 % 1013,2 hPa 0,0 mm 23,8 km/h (4 Bft) W 270 6,9 C 47,9 km/h (6 Bft)
20.11.2015 05:00 12,9 C 12,6 C 66 % 1013,2 hPa 0,0 mm 19,9 km/h (4 Bft) W-SW 247 6,7 C 12,7 km/h (3 Bft)
20.11.2015 05:05 12,9 C 12,7 C 66 % 1013,2 hPa 0,0 mm 18,1 km/h (3 Bft) W-SW 247 6,7 C 17,1 km/h (3 Bft)
20.11.2015 05:10 12,9 C 12,7 C 66 % 1013,2 hPa 0,0 mm 13,7 km/h (3 Bft) SW 225 6,7 C 12,9 km/h (3 Bft)
20.11.2015 05:15 12,8 C 12,6 C 66 % 1013,2 hPa 0,0 mm 12,4 km/h (3 Bft) SW 225 6,6 C 12,7 km/h (3 Bft)
20.11.2015 05:20 12,9 C 12,7 C 65 % 1013,2 hPa 0,0 mm 13,2 km/h (3 Bft) W 270 6,5 C 10,9 km/h (2 Bft)
20.11.2015 05:25 13,0 C 12,8 C 63 % 1013,2 hPa 0,0 mm 14,5 km/h (3 Bft) W 270 6,1 C 16,1 km/h (3 Bft)
20.11.2015 05:30 13,0 C 12,8 C 63 % 1012,8 hPa 0,0 mm 12,9 km/h (3 Bft) S-SW 202 6,1 C 20,5 km/h (4 Bft)
20.11.2015 05:35 13,0 C 12,8 C 63 % 1012,8 hPa 0,0 mm 12,4 km/h (3 Bft) W 270 6,1 C 21,5 km/h (4 Bft)
20.11.2015 05:40 13,2 C 13,0 C 62 % 1012,8 hPa 0,0 mm 14,5 km/h (3 Bft) W-SW 247 6,1 C 18,4 km/h (3 Bft)
20.11.2015 05:45 13,3 C 13,1 C 61 % 1012,8 hPa 0,0 mm 17,1 km/h (3 Bft) W 270 5,9 C 26,7 km/h (4 Bft)
20.11.2015 05:50 13,3 C 12,9 C 61 % 1012,8 hPa 0,0 mm 19,9 km/h (4 Bft) W-SW 247 5,9 C 28,2 km/h (4 Bft)
20.11.2015 05:55 13,2 C 13,0 C 61 % 1012,8 hPa 0,0 mm 18,6 km/h (3 Bft) W-SW 247 5,8 C 9,8 km/h (2 Bft)
20.11.2015 06:00 13,1 C 12,9 C 61 % 1012,8 hPa 0,0 mm 14,8 km/h (3 Bft) W-SW 247 5,8 C 16,1 km/h (3 Bft)
20.11.2015 06:05 13,1 C 12,9 C 61 % 1012,8 hPa 0,0 mm 15,0 km/h (3 Bft) S 180 5,8 C 37,0 km/h (5 Bft)
20.11.2015 06:10 12,9 C 12,7 C 63 % 1012,9 hPa 0,0 mm 15,0 km/h (3 Bft) SW 225 6,0 C 12,4 km/h (3 Bft)
20.11.2015 06:15 12,7 C 12,6 C 63 % 1012,9 hPa 0,0 mm 14,0 km/h (3 Bft) SW 225 5,8 C 13,5 km/h (3 Bft)
20.11.2015 06:20 12,7 C 12,5 C 63 % 1012,9 hPa 0,0 mm 13,2 km/h (3 Bft) W-SW 247 5,8 C 22,0 km/h (4 Bft)
20.11.2015 06:25 12,7 C 12,6 C 63 % 1012,9 hPa 0,0 mm 14,8 km/h (3 Bft) W-SW 247 5,8 C 13,2 km/h (3 Bft)
20.11.2015 06:30 12,7 C 12,5 C 64 % 1012,8 hPa 0,0 mm 15,3 km/h (3 Bft) W-NW 292 6,1 C 22,5 km/h (4 Bft)
20.11.2015 06:35 12,4 C 12,2 C 65 % 1012,8 hPa 0,0 mm 14,8 km/h (3 Bft) S-SW 202 6,0 C 14,5 km/h (3 Bft)
20.11.2015 06:40 12,1 C 11,9 C 67 % 1012,8 hPa 0,0 mm 14,8 km/h (3 Bft) W-SW 247 6,2 C 19,2 km/h (3 Bft)
20.11.2015 06:45 11,9 C 11,6 C 69 % 1012,8 hPa 0,0 mm 15,8 km/h (3 Bft) W-SW 247 6,4 C 24,1 km/h (4 Bft)
20.11.2015 06:50 11,4 C 10,9 C 74 % 1013,1 hPa 0,0 mm 19,2 km/h (3 Bft) W-NW 292 6,9 C 26,9 km/h (4 Bft)
20.11.2015 06:55 11,1 C 10,5 C 75 % 1013,1 hPa 0,0 mm 17,9 km/h (3 Bft) W 270 6,8 C 24,6 km/h (4 Bft)
20.11.2015 07:00 10,7 C 10,1 C 78 % 1013,1 hPa 0,0 mm 15,5 km/h (3 Bft) SW 225 7,0 C 19,2 km/h (3 Bft)
20.11.2015 07:05 10,6 C 10,0 C 79 % 1013,1 hPa 0,0 mm 14,2 km/h (3 Bft) W-SW 247 7,1 C 15,5 km/h (3 Bft)
20.11.2015 07:10 10,3 C 9,7 C 80 % 1013,2 hPa 0,0 mm 11,7 km/h (2 Bft) W-SW 247 7,0 C 24,3 km/h (4 Bft)
20.11.2015 07:15 10,2 C 9,7 C 80 % 1013,2 hPa 0,0 mm 9,3 km/h (2 Bft) SW 225 6,9 C 7,8 km/h (2 Bft)
20.11.2015 07:20 10,1 C 9,7 C 81 % 1013,2 hPa 0,7 mm 8,8 km/h (2 Bft) W 270 7,0 C 31,3 km/h (5 Bft)
20.11.2015 07:25 10,0 C 9,5 C 82 % 1013,2 hPa 0,0 mm 9,3 km/h (2 Bft) SW 225 7,1 C 15,0 km/h (3 Bft)
20.11.2015 07:30 9,9 C 9,4 C 83 % 1012,9 hPa 0,0 mm 10,9 km/h (2 Bft) SW 225 7,2 C 15,3 km/h (3 Bft)
20.11.2015 07:35 9,9 C 9,5 C 83 % 1012,9 hPa 0,0 mm 9,3 km/h (2 Bft) W-SW 247 7,2 C 16,6 km/h (3 Bft)
20.11.2015 07:40 9,8 C 9,5 C 83 % 1012,9 hPa 0,7 mm 7,8 km/h (2 Bft) W-SW 247 7,1 C 10,1 km/h (2 Bft)
20.11.2015 07:45 9,7 C 9,4 C 84 % 1012,9 hPa 0,0 mm 8,0 km/h (2 Bft) SW 225 7,1 C 5,4 km/h (1 Bft)
20.11.2015 07:50 9,7 C 9,3 C 84 % 1012,8 hPa 0,0 mm 9,3 km/h (2 Bft) SW 225 7,1 C 21,5 km/h (4 Bft)
20.11.2015 07:55 9,6 C 9,3 C 84 % 1012,8 hPa 0,7 mm 9,1 km/h (2 Bft) W-NW 292 7,0 C 11,9 km/h (2 Bft)
20.11.2015 08:00 9,5 C 9,2 C 85 % 1012,8 hPa 0,0 mm 8,5 km/h (2 Bft) S 180 7,1 C 15,0 km/h (3 Bft)
20.11.2015 08:05 9,5 C 9,2 C 85 % 1012,8 hPa 0,7 mm 7,5 km/h (2 Bft) W-SW 247 7,1 C 4,9 km/h (1 Bft)
20.11.2015 08:10 9,4 C 9,2 C 85 % 1012,7 hPa 0,0 mm 6,7 km/h (2 Bft) S-SW 202 7,0 C 8,8 km/h (2 Bft)
20.11.2015 08:15 9,4 C 9,3 C 85 % 1012,7 hPa 0,0 mm 5,4 km/h (1 Bft) W-SW 247 7,0 C 6,5 km/h (2 Bft)
20.11.2015 08:20 9,4 C 9,2 C 85 % 1012,7 hPa 0,7 mm 4,7 km/h (1 Bft) W-SW 247 7,0 C 3,6 km/h (1 Bft)
20.11.2015 08:25 9,3 C 9,2 C 85 % 1012,7 hPa 0,0 mm 4,7 km/h (1 Bft) S 180 6,9 C 6,2 km/h (2 Bft)
20.11.2015 08:30 9,4 C 9,2 C 86 % 1012,6 hPa 0,0 mm 5,2 km/h (1 Bft) W 270 7,2 C 5,7 km/h (1 Bft)
20.11.2015 08:35 9,3 C 9,2 C 86 % 1012,6 hPa 0,7 mm 6,0 km/h (2 Bft) SW 225 7,1 C 6,5 km/h (2 Bft)
20.11.2015 08:40 9,3 C 9,2 C 86 % 1012,6 hPa 0,0 mm 5,7 km/h (1 Bft) W-SW 247 7,1 C 7,0 km/h (2 Bft)
20.11.2015 08:45 9,3 C 9,2 C 86 % 1012,6 hPa 0,0 mm 5,7 km/h (1 Bft) W-SW 247 7,1 C 8,0 km/h (2 Bft)
20.11.2015 08:50 9,3 C 9,2 C 86 % 1012,4 hPa 0,7 mm 6,0 km/h (2 Bft) SW 225 7,1 C 16,8 km/h (3 Bft)
20.11.2015 08:55 9,3 C 9,1 C 86 % 1012,4 hPa 0,0 mm 7,0 km/h (2 Bft) W 270 7,1 C 9,6 km/h (2 Bft)
20.11.2015 09:00 9,3 C 9,0 C 86 % 1012,4 hPa 0,0 mm 7,3 km/h (2 Bft) W-SW 247 7,1 C 12,4 km/h (3 Bft)
20.11.2015 09:05 9,3 C 9,1 C 86 % 1012,4 hPa 0,0 mm 6,7 km/h (2 Bft) W-SW 247 7,1 C 4,7 km/h (1 Bft)
20.11.2015 09:10 9,3 C 9,1 C 86 % 1012,3 hPa 0,7 mm 6,5 km/h (2 Bft) W 270 7,1 C 8,0 km/h (2 Bft)
20.11.2015 09:15 9,4 C 9,1 C 86 % 1012,3 hPa 0,0 mm 7,3 km/h (2 Bft) W-SW 247 7,2 C 7,8 km/h (2 Bft)
20.11.2015 09:20 9,3 C 9,0 C 86 % 1012,3 hPa 0,0 mm 8,0 km/h (2 Bft) W-SW 247 7,1 C 10,4 km/h (2 Bft)
20.11.2015 09:25 9,3 C 9,0 C 86 % 1012,3 hPa 0,0 mm 7,0 km/h (2 Bft) W 270 7,1 C 18,1 km/h (3 Bft)
20.11.2015 09:30 9,3 C 8,9 C 86 % 1012,1 hPa 0,0 mm 8,5 km/h (2 Bft) O-NO 67 7,1 C 7,8 km/h (2 Bft)
20.11.2015 09:35 9,3 C 9,0 C 86 % 1012,1 hPa 0,0 mm 8,3 km/h (2 Bft) W-SW 247 7,1 C 8,8 km/h (2 Bft)
20.11.2015 09:40 9,3 C 9,0 C 86 % 1012,1 hPa 0,0 mm 7,8 km/h (2 Bft) W 270 7,1 C 11,9 km/h (2 Bft)
20.11.2015 09:45 9,3 C 8,9 C 86 % 1012,1 hPa 0,7 mm 8,5 km/h (2 Bft) W-SW 247 7,1 C 12,4 km/h (3 Bft)
20.11.2015 09:50 9,3 C 8,9 C 86 % 1011,8 hPa 0,0 mm 8,5 km/h (2 Bft) NW 315 7,1 C 6,7 km/h (2 Bft)
20.11.2015 09:55 9,3 C 8,9 C 86 % 1011,8 hPa 0,0 mm 9,1 km/h (2 Bft) S-SW 202 7,1 C 11,1 km/h (2 Bft)
20.11.2015 10:00 9,3 C 9,0 C 86 % 1011,8 hPa 0,0 mm 7,5 km/h (2 Bft) S 180 7,1 C 6,7 km/h (2 Bft)
20.11.2015 10:05 9,3 C 9,0 C 86 % 1011,8 hPa 0,0 mm 7,3 km/h (2 Bft) SW 225 7,1 C 12,2 km/h (2 Bft)
20.11.2015 10:10 9,3 C 9,1 C 86 % 1011,2 hPa 0,0 mm 6,5 km/h (2 Bft) W-SW 247 7,1 C 5,4 km/h (1 Bft)
20.11.2015 10:15 9,3 C 9,1 C 86 % 1011,2 hPa 0,0 mm 7,0 km/h (2 Bft) W-SW 247 7,1 C 10,4 km/h (2 Bft)
20.11.2015 10:20 9,4 C 9,1 C 86 % 1011,2 hPa 0,0 mm 8,0 km/h (2 Bft) SW 225 7,2 C 14,0 km/h (3 Bft)
20.11.2015 10:25 9,4 C 9,1 C 86 % 1011,2 hPa 0,7 mm 7,8 km/h (2 Bft) W 270 7,2 C 6,2 km/h (2 Bft)
20.11.2015 10:30 9,4 C 9,1 C 86 % 1010,8 hPa 0,0 mm 7,5 km/h (2 Bft) SW 225 7,2 C 9,3 km/h (2 Bft)
20.11.2015 10:35 9,4 C 9,2 C 86 % 1010,8 hPa 0,0 mm 7,0 km/h (2 Bft) W-SW 247 7,2 C 3,6 km/h (1 Bft)
20.11.2015 10:40 9,3 C 9,1 C 86 % 1010,8 hPa 0,0 mm 6,0 km/h (2 Bft) SW 225 7,1 C 6,2 km/h (2 Bft)
20.11.2015 10:43 9,3 C 9,1 C 86 % 1010,8 hPa 0,7 mm 6,0 km/h (2 Bft) SW 225 7,1 C 6,2 km/h (2 Bft)
20.11.2015 10:45 9,3 C 9,1 C 86 % 1010,8 hPa 0,0 mm 5,4 km/h (1 Bft) W-NW 292 7,1 C 18,6 km/h (3 Bft)
20.11.2015 10:50 9,2 C 9,0 C 86 % 1010,7 hPa 0,0 mm 6,5 km/h (2 Bft) W-SW 247 7,0 C 6,2 km/h (2 Bft)
20.11.2015 10:55 9,2 C 9,1 C 86 % 1010,7 hPa 0,0 mm 6,2 km/h (2 Bft) W 270 7,0 C 8,5 km/h (2 Bft)
20.11.2015 11:00 9,2 C 9,1 C 86 % 1010,7 hPa 0,0 mm 5,7 km/h (1 Bft) W 270 7,0 C 7,5 km/h (2 Bft)
20.11.2015 11:05 9,1 C 9,0 C 86 % 1010,7 hPa 0,7 mm 6,5 km/h (2 Bft) SW 225 6,9 C 8,3 km/h (2 Bft)
20.11.2015 11:10 9,1 C 9,0 C 86 % 1010,6 hPa 0,0 mm 4,7 km/h (1 Bft) SW 225 6,9 C 3,4 km/h (1 Bft)
20.11.2015 11:15 9,1 C 9,0 C 86 % 1010,6 hPa 0,0 mm 3,9 km/h (1 Bft) W 270 6,9 C 5,4 km/h (1 Bft)
20.11.2015 11:20 9,0 C 8,9 C 86 % 1010,6 hPa 0,0 mm 4,4 km/h (1 Bft) W 270 6,8 C 4,9 km/h (1 Bft)
20.11.2015 11:25 9,1 C 9,0 C 86 % 1010,6 hPa 0,0 mm 4,9 km/h (1 Bft) W-SW 247 6,9 C 8,3 km/h (2 Bft)
20.11.2015 11:30 9,1 C 9,0 C 86 % 1010,1 hPa 0,7 mm 4,7 km/h (1 Bft) W-SW 247 6,9 C 3,1 km/h (1 Bft)
20.11.2015 11:35 9,1 C 9,0 C 86 % 1010,1 hPa 0,0 mm 3,9 km/h (1 Bft) W-SW 247 6,9 C 6,0 km/h (2 Bft)
20.11.2015 11:40 9,1 C 9,0 C 86 % 1010,1 hPa 0,0 mm 5,2 km/h (1 Bft) W-SW 247 6,9 C 9,8 km/h (2 Bft)
20.11.2015 11:45 9,1 C 9,0 C 86 % 1010,1 hPa 0,0 mm 6,0 km/h (2 Bft) W-SW 247 6,9 C 3,6 km/h (1 Bft)
20.11.2015 11:50 9,1 C 8,9 C 86 % 1009,4 hPa 0,0 mm 5,2 km/h (1 Bft) W 270 6,9 C 3,6 km/h (1 Bft)
20.11.2015 11:55 9,0 C 8,9 C 86 % 1009,4 hPa 0,7 mm 4,9 km/h (1 Bft) W 270 6,8 C 7,3 km/h (2 Bft)
20.11.2015 12:00 9,1 C 8,9 C 86 % 1009,4 hPa 0,0 mm 4,4 km/h (1 Bft) W 270 6,9 C 6,7 km/h (2 Bft)
20.11.2015 12:05 9,1 C 9,0 C 86 % 1009,4 hPa 0,0 mm 3,9 km/h (1 Bft) W-SW 247 6,9 C 4,7 km/h (1 Bft)
20.11.2015 12:10 9,2 C 9,0 C 86 % 1008,4 hPa 0,0 mm 3,9 km/h (1 Bft) SO 135 7,0 C 0,0 km/h (0 Bft)
20.11.2015 12:15 9,1 C 9,0 C 86 % 1008,4 hPa 0,0 mm 2,1 km/h (1 Bft) O-NO 67 6,9 C 0,0 km/h (0 Bft)
20.11.2015 12:20 9,2 C 9,1 C 87 % 1008,4 hPa 0,0 mm 0,3 km/h (0 Bft) O-NO 67 7,2 C 0,0 km/h (0 Bft)
20.11.2015 12:25 9,2 C 9,3 C 82 % 1008,4 hPa 0,0 mm 0,3 km/h (0 Bft) S 180 6,3 C 0,0 km/h (0 Bft)
20.11.2015 12:30 9,3 C 9,4 C 82 % 1007,5 hPa 0,0 mm 0,3 km/h (0 Bft) N-NW 337 6,4 C 0,0 km/h (0 Bft)
20.11.2015 12:35 9,3 C 9,3 C 82 % 1007,5 hPa 0,0 mm 1,0 km/h (0 Bft) SW 225 6,4 C 5,7 km/h (1 Bft)
20.11.2015 12:40 9,6 C 9,5 C 82 % 1007,5 hPa 0,0 mm 4,7 km/h (1 Bft) W-NW 292 6,7 C 3,9 km/h (1 Bft)
20.11.2015 12:45 9,9 C 9,6 C 86 % 1007,5 hPa 0,0 mm 7,5 km/h (2 Bft) S 180 7,7 C 17,1 km/h (3 Bft)
20.11.2015 12:50 10,0 C 9,6 C 85 % 1007,0 hPa 0,0 mm 7,5 km/h (2 Bft) W-SW 247 7,6 C 6,0 km/h (2 Bft)
20.11.2015 12:55 10,1 C 9,8 C 85 % 1007,0 hPa 0,0 mm 7,0 km/h (2 Bft) SW 225 7,7 C 8,5 km/h (2 Bft)
20.11.2015 13:00 10,1 C 9,8 C 84 % 1007,0 hPa 0,0 mm 5,2 km/h (1 Bft) NW 315 7,5 C 12,2 km/h (2 Bft)
20.11.2015 13:05 10,0 C 9,7 C 84 % 1007,0 hPa 0,0 mm 3,1 km/h (1 Bft) W-NW 292 7,4 C 3,4 km/h (1 Bft)
20.11.2015 13:10 10,0 C 9,7 C 84 % 1006,4 hPa 0,0 mm 1,0 km/h (0 Bft) S-SO 157 7,4 C 2,6 km/h (1 Bft)
20.11.2015 13:15 9,9 C 9,7 C 84 % 1006,4 hPa 0,7 mm 0,5 km/h (0 Bft) O-SO 112 7,3 C 0,0 km/h (0 Bft)
20.11.2015 13:20 9,9 C 9,7 C 84 % 1006,4 hPa 0,0 mm 1,3 km/h (1 Bft) SW 225 7,3 C 0,0 km/h (0 Bft)
20.11.2015 13:25 9,9 C 9,7 C 84 % 1006,4 hPa 0,0 mm 1,3 km/h (1 Bft) W-NW 292 7,3 C 0,0 km/h (0 Bft)
20.11.2015 13:30 9,9 C 9,7 C 84 % 1005,6 hPa 0,0 mm 1,0 km/h (0 Bft) SW 225 7,3 C 0,0 km/h (0 Bft)
20.11.2015 13:35 9,7 C 9,5 C 85 % 1005,6 hPa 0,0 mm 0,8 km/h (0 Bft) W 270 7,3 C 0,0 km/h (0 Bft)
20.11.2015 13:40 9,7 C 9,5 C 85 % 1005,6 hPa 0,0 mm 0,5 km/h (0 Bft) W-SW 247 7,3 C 0,0 km/h (0 Bft)
20.11.2015 13:45 9,6 C 9,5 C 85 % 1005,6 hPa 0,7 mm 0,8 km/h (0 Bft) SW 225 7,2 C 4,9 km/h (1 Bft)
20.11.2015 13:50 9,5 C 9,4 C 85 % 1005,4 hPa 0,0 mm 0,5 km/h (0 Bft) S 180 7,1 C 2,6 km/h (1 Bft)
20.11.2015 13:55 9,5 C 9,4 C 86 % 1005,4 hPa 0,0 mm 0,5 km/h (0 Bft) SW 225 7,3 C 0,0 km/h (0 Bft)
20.11.2015 14:00 9,5 C 9,4 C 86 % 1005,4 hPa 0,7 mm 0,3 km/h (0 Bft) W-SW 247 7,3 C 0,0 km/h (0 Bft)
20.11.2015 14:05 9,5 C 9,3 C 86 % 1005,4 hPa 0,0 mm 1,6 km/h (1 Bft) S 180 7,3 C 9,1 km/h (2 Bft)
20.11.2015 14:10 9,7 C 9,4 C 85 % 1004,8 hPa 0,0 mm 5,7 km/h (1 Bft) W 270 7,3 C 13,7 km/h (3 Bft)
20.11.2015 14:15 9,8 C 9,4 C 85 % 1004,8 hPa 0,0 mm 7,8 km/h (2 Bft) SW 225 7,4 C 4,4 km/h (1 Bft)
20.11.2015 14:20 9,7 C 9,5 C 85 % 1004,8 hPa 0,0 mm 6,2 km/h (2 Bft) W 270 7,3 C 7,3 km/h (2 Bft)
20.11.2015 14:25 9,8 C 9,5 C 85 % 1004,8 hPa 0,7 mm 5,7 km/h (1 Bft) W 270 7,4 C 7,8 km/h (2 Bft)
20.11.2015 14:30 9,8 C 9,4 C 85 % 1004,4 hPa 0,0 mm 7,5 km/h (2 Bft) SW 225 7,4 C 15,8 km/h (3 Bft)
20.11.2015 14:35 9,8 C 9,5 C 85 % 1004,4 hPa 0,0 mm 7,0 km/h (2 Bft) SW 225 7,4 C 4,1 km/h (1 Bft)
20.11.2015 14:40 9,9 C 9,5 C 85 % 1004,4 hPa 0,7 mm 8,0 km/h (2 Bft) W 270 7,5 C 9,3 km/h (2 Bft)
20.11.2015 14:45 9,9 C 9,5 C 85 % 1004,4 hPa 0,0 mm 7,8 km/h (2 Bft) W-SW 247 7,5 C 8,3 km/h (2 Bft)
20.11.2015 14:50 10,0 C 9,5 C 85 % 1003,8 hPa 0,0 mm 8,8 km/h (2 Bft) W-SW 247 7,6 C 7,8 km/h (2 Bft)
20.11.2015 14:55 9,9 C 9,5 C 85 % 1003,8 hPa 0,0 mm 9,1 km/h (2 Bft) SW 225 7,5 C 7,8 km/h (2 Bft)
20.11.2015 15:00 10,1 C 9,6 C 84 % 1003,8 hPa 0,7 mm 9,8 km/h (2 Bft) W-NW 292 7,5 C 11,1 km/h (2 Bft)
20.11.2015 15:05 10,0 C 9,5 C 84 % 1003,8 hPa 0,0 mm 10,1 km/h (2 Bft) W-SW 247 7,4 C 10,1 km/h (2 Bft)
20.11.2015 15:10 10,3 C 9,7 C 83 % 1003,1 hPa 0,0 mm 12,9 km/h (3 Bft) S-SW 202 7,5 C 17,1 km/h (3 Bft)
20.11.2015 15:15 10,3 C 9,7 C 83 % 1003,1 hPa 0,0 mm 14,2 km/h (3 Bft) S-SW 202 7,5 C 17,3 km/h (3 Bft)
20.11.2015 15:20 10,4 C 9,7 C 82 % 1003,1 hPa 0,0 mm 11,9 km/h (2 Bft) W-SW 247 7,5 C 19,7 km/h (3 Bft)
20.11.2015 15:25 10,4 C 9,8 C 82 % 1003,1 hPa 0,0 mm 12,4 km/h (3 Bft) W-SW 247 7,5 C 23,3 km/h (4 Bft)
20.11.2015 15:30 10,4 C 9,8 C 82 % 1002,7 hPa 0,0 mm 13,5 km/h (3 Bft) W-SW 247 7,5 C 19,7 km/h (3 Bft)
20.11.2015 15:35 10,4 C 9,8 C 82 % 1002,7 hPa 0,0 mm 14,2 km/h (3 Bft) SW 225 7,5 C 29,0 km/h (5 Bft)
20.11.2015 15:40 10,3 C 9,7 C 82 % 1002,7 hPa 0,0 mm 12,9 km/h (3 Bft) W-NW 292 7,4 C 8,3 km/h (2 Bft)
20.11.2015 15:45 10,2 C 9,5 C 83 % 1002,7 hPa 0,0 mm 12,2 km/h (2 Bft) W 270 7,4 C 18,6 km/h (3 Bft)
20.11.2015 15:50 10,2 C 9,6 C 83 % 1002,8 hPa 0,0 mm 11,4 km/h (2 Bft) W-SW 247 7,4 C 15,3 km/h (3 Bft)
20.11.2015 15:55 10,2 C 9,6 C 83 % 1002,8 hPa 0,7 mm 11,4 km/h (2 Bft) SW 225 7,4 C 10,9 km/h (2 Bft)
20.11.2015 16:00 10,1 C 9,5 C 83 % 1002,8 hPa 0,0 mm 10,9 km/h (2 Bft) W-SW 247 7,3 C 13,5 km/h (3 Bft)
20.11.2015 16:05 10,0 C 9,4 C 83 % 1002,8 hPa 0,0 mm 10,1 km/h (2 Bft) W 270 7,2 C 8,5 km/h (2 Bft)
20.11.2015 16:10 10,0 C 9,4 C 83 % 1002,4 hPa 0,0 mm 11,4 km/h (2 Bft) W 270 7,2 C 11,7 km/h (2 Bft)
20.11.2015 16:15 10,0 C 9,4 C 83 % 1002,4 hPa 0,0 mm 11,1 km/h (2 Bft) W-SW 247 7,2 C 9,1 km/h (2 Bft)
20.11.2015 16:20 10,0 C 9,3 C 83 % 1002,4 hPa 0,0 mm 11,4 km/h (2 Bft) SW 225 7,2 C 11,4 km/h (2 Bft)
20.11.2015 16:25 10,0 C 9,3 C 83 % 1002,4 hPa 0,0 mm 11,7 km/h (2 Bft) W-SW 247 7,2 C 22,5 km/h (4 Bft)
20.11.2015 16:30 9,9 C 9,3 C 83 % 1002,1 hPa 0,0 mm 10,6 km/h (2 Bft) W-SW 247 7,2 C 10,1 km/h (2 Bft)
20.11.2015 16:35 10,0 C 9,3 C 83 % 1002,1 hPa 0,0 mm 11,7 km/h (2 Bft) W-SW 247 7,2 C 14,0 km/h (3 Bft)
20.11.2015 16:40 10,0 C 9,3 C 83 % 1002,1 hPa 0,0 mm 11,9 km/h (2 Bft) SW 225 7,2 C 11,7 km/h (2 Bft)
20.11.2015 16:44 9,8 C 9,2 C 83 % 1002,1 hPa 0,0 mm 10,6 km/h (2 Bft) W 270 7,1 C 9,3 km/h (2 Bft)
20.11.2015 16:50 9,7 C 9,3 C 83 % 1001,4 hPa 0,7 mm 8,3 km/h (2 Bft) SW 225 7,0 C 22,8 km/h (4 Bft)
20.11.2015 16:55 9,9 C 9,4 C 83 % 1001,4 hPa 0,0 mm 8,5 km/h (2 Bft) SW 225 7,2 C 8,0 km/h (2 Bft)
20.11.2015 17:00 9,9 C 9,3 C 83 % 1001,4 hPa 0,0 mm 9,1 km/h (2 Bft) S 180 7,2 C 16,8 km/h (3 Bft)
20.11.2015 17:05 9,8 C 9,3 C 83 % 1001,4 hPa 0,0 mm 8,0 km/h (2 Bft) S-SW 202 7,1 C 9,3 km/h (2 Bft)
20.11.2015 17:10 9,8 C 9,3 C 82 % 1001,0 hPa 0,0 mm 7,8 km/h (2 Bft) S-SW 202 6,9 C 13,5 km/h (3 Bft)
20.11.2015 17:15 9,9 C 9,4 C 82 % 1001,0 hPa 0,0 mm 7,3 km/h (2 Bft) W-SW 247 7,0 C 8,0 km/h (2 Bft)
20.11.2015 17:20 9,8 C 9,4 C 82 % 1001,0 hPa 0,0 mm 6,5 km/h (2 Bft) W 270 6,9 C 3,6 km/h (1 Bft)
20.11.2015 17:25 9,7 C 9,4 C 81 % 1001,0 hPa 0,0 mm 5,7 km/h (1 Bft) W-SW 247 6,6 C 7,0 km/h (2 Bft)
20.11.2015 17:30 9,9 C 9,5 C 81 % 1000,7 hPa 0,0 mm 6,7 km/h (2 Bft) W 270 6,8 C 7,8 km/h (2 Bft)
20.11.2015 17:35 9,9 C 9,5 C 81 % 1000,7 hPa 0,0 mm 7,0 km/h (2 Bft) SW 225 6,8 C 10,9 km/h (2 Bft)
20.11.2015 17:40 10,3 C 9,7 C 79 % 1000,7 hPa 0,0 mm 7,8 km/h (2 Bft) S-SW 202 6,8 C 8,5 km/h (2 Bft)
20.11.2015 17:45 10,2 C 9,6 C 78 % 1000,7 hPa 0,0 mm 9,1 km/h (2 Bft) W 270 6,5 C 9,6 km/h (2 Bft)
20.11.2015 17:50 10,4 C 9,9 C 77 % 1000,2 hPa 0,0 mm 7,5 km/h (2 Bft) S 180 6,5 C 6,7 km/h (2 Bft)
20.11.2015 17:55 10,2 C 9,8 C 77 % 1000,2 hPa 0,0 mm 6,2 km/h (2 Bft) SW 225 6,4 C 4,9 km/h (1 Bft)
20.11.2015 18:00 10,4 C 10,0 C 77 % 1000,2 hPa 0,0 mm 5,4 km/h (1 Bft) W 270 6,5 C 5,2 km/h (1 Bft)
20.11.2015 18:05 10,4 C 10,0 C 77 % 1000,2 hPa 0,0 mm 5,2 km/h (1 Bft) W-NW 292 6,5 C 5,2 km/h (1 Bft)
20.11.2015 18:10 10,8 C 10,3 C 75 % 1000,0 hPa 0,0 mm 7,3 km/h (2 Bft) SW 225 6,5 C 11,9 km/h (2 Bft)
20.11.2015 18:15 10,8 C 10,3 C 74 % 1000,0 hPa 0,0 mm 8,5 km/h (2 Bft) S 180 6,4 C 10,6 km/h (2 Bft)
20.11.2015 18:20 10,9 C 10,4 C 74 % 1000,0 hPa 0,0 mm 8,5 km/h (2 Bft) W-NW 292 6,5 C 6,0 km/h (2 Bft)
20.11.2015 18:25 11,1 C 10,5 C 72 % 1000,0 hPa 0,0 mm 10,4 km/h (2 Bft) SW 225 6,2 C 16,6 km/h (3 Bft)
20.11.2015 18:30 11,2 C 10,8 C 71 % 999,6 hPa 0,0 mm 10,9 km/h (2 Bft) SW 225 6,1 C 8,8 km/h (2 Bft)
20.11.2015 18:35 11,0 C 10,8 C 72 % 999,6 hPa 0,0 mm 10,6 km/h (2 Bft) W-NW 292 6,2 C 16,3 km/h (3 Bft)
20.11.2015 18:40 11,3 C 11,2 C 70 % 999,6 hPa 0,0 mm 9,1 km/h (2 Bft) S-SO 157 6,0 C 9,8 km/h (2 Bft)
20.11.2015 18:45 11,3 C 11,2 C 70 % 999,6 hPa 0,0 mm 9,3 km/h (2 Bft) W 270 6,0 C 3,4 km/h (1 Bft)
20.11.2015 18:50 11,3 C 11,2 C 69 % 999,4 hPa 0,0 mm 10,9 km/h (2 Bft) W 270 5,8 C 13,2 km/h (3 Bft)
20.11.2015 18:55 11,4 C 11,3 C 69 % 999,4 hPa 0,0 mm 11,1 km/h (2 Bft) W 270 5,9 C 9,1 km/h (2 Bft)
20.11.2015 19:00 11,1 C 11,0 C 70 % 999,4 hPa 0,0 mm 10,9 km/h (2 Bft) SW 225 5,8 C 12,9 km/h (3 Bft)
20.11.2015 19:05 11,2 C 11,1 C 70 % 999,4 hPa 0,0 mm 9,3 km/h (2 Bft) W-SW 247 5,9 C 4,4 km/h (1 Bft)
20.11.2015 19:10 11,1 C 11,0 C 71 % 999,2 hPa 0,0 mm 10,4 km/h (2 Bft) W 270 6,0 C 13,2 km/h (3 Bft)
20.11.2015 19:15 11,2 C 11,0 C 71 % 999,2 hPa 0,0 mm 11,1 km/h (2 Bft) W-SW 247 6,1 C 14,0 km/h (3 Bft)
20.11.2015 19:20 11,2 C 11,0 C 71 % 999,2 hPa 0,0 mm 15,0 km/h (3 Bft) W-SW 247 6,1 C 16,8 km/h (3 Bft)
20.11.2015 19:25 10,3 C 10,1 C 76 % 999,2 hPa 0,0 mm 16,8 km/h (3 Bft) W-NW 292 6,3 C 11,1 km/h (2 Bft)
20.11.2015 19:30 9,4 C 9,2 C 79 % 1000,3 hPa 1,4 mm 13,7 km/h (3 Bft) W-NW 292 5,9 C 9,3 km/h (2 Bft)
20.11.2015 19:35 8,9 C 8,6 C 79 % 1000,3 hPa 0,0 mm 12,4 km/h (3 Bft) W-SW 247 5,5 C 11,9 km/h (2 Bft)
20.11.2015 19:40 8,4 C 8,0 C 81 % 1000,3 hPa 0,7 mm 14,2 km/h (3 Bft) O-SO 112 5,3 C 18,6 km/h (3 Bft)
20.11.2015 19:45 8,2 C 7,7 C 82 % 1000,3 hPa 0,0 mm 13,7 km/h (3 Bft) W-SW 247 5,3 C 12,4 km/h (3 Bft)
20.11.2015 19:50 8,0 C 7,5 C 83 % 1000,2 hPa 0,7 mm 12,9 km/h (3 Bft) SW 225 5,3 C 9,3 km/h (2 Bft)
20.11.2015 19:55 7,9 C 7,2 C 83 % 1000,2 hPa 0,0 mm 11,9 km/h (2 Bft) S-SW 202 5,2 C 10,4 km/h (2 Bft)
20.11.2015 20:00 7,7 C 7,3 C 84 % 1000,2 hPa 0,7 mm 8,3 km/h (2 Bft) S 180 5,2 C 9,6 km/h (2 Bft)
20.11.2015 20:05 7,6 C 7,2 C 84 % 1000,2 hPa 0,0 mm 8,8 km/h (2 Bft) S-SW 202 5,1 C 11,7 km/h (2 Bft)
20.11.2015 20:10 7,5 C 7,1 C 85 % 1000,4 hPa 1,0 mm 8,8 km/h (2 Bft) S-SW 202 5,1 C 12,4 km/h (3 Bft)
20.11.2015 20:15 7,5 C 7,0 C 85 % 1000,4 hPa 0,0 mm 9,1 km/h (2 Bft) SW 225 5,1 C 8,3 km/h (2 Bft)
20.11.2015 20:20 7,5 C 7,0 C 86 % 1000,4 hPa 1,0 mm 9,8 km/h (2 Bft) W-SW 247 5,3 C 8,5 km/h (2 Bft)
20.11.2015 20:25 7,5 C 7,0 C 86 % 1000,4 hPa 0,0 mm 10,4 km/h (2 Bft) O 90 5,3 C 9,1 km/h (2 Bft)
20.11.2015 20:30 7,5 C 7,1 C 87 % 1000,2 hPa 0,0 mm 9,3 km/h (2 Bft) W-SW 247 5,5 C 11,4 km/h (2 Bft)
20.11.2015 20:35 7,4 C 7,2 C 87 % 1002,1 hPa 0,7 mm 7,0 km/h (2 Bft) N-NW 337 5,4 C 8,8 km/h (2 Bft)
20.11.2015 20:40 7,2 C 6,9 C 87 % 1002,1 hPa 0,7 mm 8,8 km/h (2 Bft) N-NW 337 5,2 C 14,0 km/h (3 Bft)
20.11.2015 20:45 6,9 C 6,5 C 87 % 1002,1 hPa 0,7 mm 10,4 km/h (2 Bft) W-NW 292 4,9 C 8,0 km/h (2 Bft)
20.11.2015 20:50 6,6 C 6,2 C 87 % 1002,1 hPa 0,0 mm 10,4 km/h (2 Bft) NW 315 4,6 C 19,4 km/h (3 Bft)
20.11.2015 20:55 6,3 C 5,9 C 87 % 1002,8 hPa 0,7 mm 9,8 km/h (2 Bft) NW 315 4,3 C 11,9 km/h (2 Bft)
20.11.2015 21:00 6,0 C 5,5 C 87 % 1002,8 hPa 0,0 mm 10,4 km/h (2 Bft) N-NW 337 4,0 C 13,2 km/h (3 Bft)
20.11.2015 21:05 5,9 C 5,3 C 88 % 1002,8 hPa 0,7 mm 10,4 km/h (2 Bft) NW 315 4,1 C 15,3 km/h (3 Bft)
20.11.2015 21:10 5,8 C 5,3 C 88 % 1002,8 hPa 0,0 mm 9,1 km/h (2 Bft) NW 315 4,0 C 8,0 km/h (2 Bft)
20.11.2015 21:15 5,7 C 5,2 C 88 % 1002,9 hPa 0,0 mm 8,3 km/h (2 Bft) W 270 3,9 C 18,1 km/h (3 Bft)
20.11.2015 21:20 5,6 C 5,0 C 88 % 1002,9 hPa 0,7 mm 9,8 km/h (2 Bft) W-NW 292 3,8 C 13,5 km/h (3 Bft)
20.11.2015 21:25 5,5 C 4,9 C 88 % 1002,9 hPa 0,0 mm 10,6 km/h (2 Bft) NW 315 3,7 C 14,8 km/h (3 Bft)
20.11.2015 21:30 5,4 C 4,9 C 88 % 1000,0 hPa 0,0 mm 9,8 km/h (2 Bft) W-NW 292 3,6 C 13,2 km/h (3 Bft)
20.11.2015 21:35 5,4 C 4,9 C 88 % 1000,0 hPa 0,7 mm 9,1 km/h (2 Bft) W 270 3,6 C 7,8 km/h (2 Bft)
20.11.2015 21:40 5,4 C 5,0 C 89 % 1000,0 hPa 0,0 mm 8,0 km/h (2 Bft) W 270 3,7 C 9,8 km/h (2 Bft)
20.11.2015 21:45 5,3 C 4,8 C 89 % 1000,0 hPa 0,7 mm 8,3 km/h (2 Bft) W 270 3,6 C 15,0 km/h (3 Bft)
20.11.2015 21:50 5,1 C 4,4 C 89 % 999,8 hPa 0,0 mm 12,2 km/h (2 Bft) W-SW 247 3,4 C 16,8 km/h (3 Bft)
20.11.2015 21:55 4,7 C 4,1 C 88 % 999,8 hPa 0,7 mm 16,8 km/h (3 Bft) W-SW 247 2,9 C 14,8 km/h (3 Bft)
20.11.2015 22:00 4,4 C 3,6 C 88 % 999,8 hPa 0,7 mm 19,2 km/h (3 Bft) W-SW 247 2,6 C 28,7 km/h (4 Bft)
20.11.2015 22:05 4,3 C 3,5 C 88 % 999,8 hPa 0,0 mm 16,8 km/h (3 Bft) N-NW 337 2,5 C 17,6 km/h (3 Bft)
20.11.2015 22:10 4,2 C 3,4 C 87 % 999,8 hPa 0,7 mm 16,1 km/h (3 Bft) W 270 2,2 C 15,0 km/h (3 Bft)
20.11.2015 22:15 4,1 C 3,3 C 87 % 999,8 hPa 0,7 mm 13,2 km/h (3 Bft) O-NO 67 2,1 C 13,7 km/h (3 Bft)
20.11.2015 22:20 4,1 C 3,2 C 88 % 999,8 hPa 0,7 mm 11,4 km/h (2 Bft) W-SW 247 2,3 C 13,5 km/h (3 Bft)
20.11.2015 22:25 4,1 C 3,4 C 88 % 999,8 hPa 0,0 mm 12,7 km/h (3 Bft) W 270 2,3 C 16,6 km/h (3 Bft)
20.11.2015 22:30 3,8 C 3,2 C 89 % 1000,1 hPa 1,4 mm 13,2 km/h (3 Bft) W-SW 247 2,2 C 15,8 km/h (3 Bft)
20.11.2015 22:35 3,2 C 2,6 C 88 % 1000,1 hPa 0,0 mm 15,0 km/h (3 Bft) W 270 1,4 C 30,6 km/h (5 Bft)
20.11.2015 22:40 2,6 C 1,9 C 88 % 1000,1 hPa 1,4 mm 15,5 km/h (3 Bft) W 270 0,8 C 19,7 km/h (3 Bft)
20.11.2015 22:45 2,1 C 1,4 C 87 % 1000,1 hPa 4,8 mm 15,0 km/h (3 Bft) SW 225 0,2 C 11,7 km/h (2 Bft)
20.11.2015 22:50 1,6 C 0,8 C 87 % 1000,5 hPa 0,7 mm 12,9 km/h (3 Bft) W-SW 247 -0,3 C 9,8 km/h (2 Bft)
20.11.2015 22:55 1,4 C 0,5 C 87 % 1000,5 hPa 0,0 mm 9,3 km/h (2 Bft) W 270 -0,5 C 5,2 km/h (1 Bft)
20.11.2015 23:00 1,1 C 0,5 C 87 % 1000,5 hPa 0,0 mm 6,2 km/h (2 Bft) NW 315 -0,8 C 0,0 km/h (0 Bft)
20.11.2015 23:05 0,9 C 0,3 C 88 % 1000,5 hPa 0,0 mm 6,0 km/h (2 Bft) W 270 -0,9 C 3,4 km/h (1 Bft)
20.11.2015 23:10 0,7 C 0,3 C 88 % 1000,9 hPa 0,0 mm 4,7 km/h (1 Bft) W-SW 247 -1,1 C 5,2 km/h (1 Bft)
20.11.2015 23:15 0,6 C 0,3 C 88 % 1000,9 hPa 0,0 mm 3,1 km/h (1 Bft) SW 225 -1,2 C 3,9 km/h (1 Bft)
20.11.2015 23:20 0,6 C 0,3 C 88 % 1000,9 hPa 0,0 mm 2,3 km/h (1 Bft) SW 225 -1,2 C 2,6 km/h (1 Bft)
20.11.2015 23:25 0,6 C 0,3 C 88 % 1000,9 hPa 0,0 mm 3,9 km/h (1 Bft) S-SW 202 -1,2 C 6,7 km/h (2 Bft)
20.11.2015 23:30 0,5 C 0,1 C 88 % 1000,8 hPa 0,0 mm 4,9 km/h (1 Bft) SW 225 -1,3 C 3,6 km/h (1 Bft)
20.11.2015 23:35 0,5 C 0,1 C 89 % 1000,8 hPa 0,0 mm 4,7 km/h (1 Bft) SW 225 -1,1 C 6,7 km/h (2 Bft)
20.11.2015 23:40 0,6 C 0,3 C 89 % 1000,8 hPa 0,7 mm 4,1 km/h (1 Bft) W-SW 247 -1,0 C 7,5 km/h (2 Bft)
20.11.2015 23:45 0,6 C 0,1 C 89 % 1000,8 hPa 0,0 mm 5,4 km/h (1 Bft) W-SW 247 -1,0 C 5,7 km/h (1 Bft)
20.11.2015 23:50 0,6 C 0,0 C 89 % 1000,8 hPa 0,0 mm 5,7 km/h (1 Bft) W-SW 247 -1,0 C 4,4 km/h (1 Bft)
20.11.2015 23:55 0,6 C 0,0 C 89 % 1000,8 hPa 0,0 mm 5,7 km/h (1 Bft) W-SW 247 -1,0 C 10,4 km/h (2 Bft)
_ Min-Zeit 23:35 23:55 00:00 19:25 - 14:00 - - 23:30 23:00
Minimum _ 0,5 C 0,0 C 52 % 999,2 hPa - 0,3 km/h (0 Bft) - - -1,3 C 0,0 km/h (0 Bft)
_ Max-Zeit 01:40 01:40 23:55 00:25 22:45 02:15 - - 12:55 04:30
Maximum _ 14,6 C 14,4 C 89 % 1014,8 hPa 4,8 mm 24,9 km/h
W-NW (4 Bft)
- - 7,7 C 59,0 km/h
S-SW (7 Bft)
Durchschnitt _ 9,9 C 9,5 C 77 % 1007,6 hPa #38,5 mm 10,9 km/h (2 Bft) W-SW - 5,9 C 14,0 km/h (3 Bft)